Weather History for Fairbanks, AK

Change the Weather History Date:

Monday, June 23, 2014

  Actual Average Record
Temperature  
Mean Temperature 63 °F 63 °F  
Max Temperature 73 °F 74 °F 90 °F (1916)
Min Temperature 52 °F 52 °F 38 °F (1947)
Degree Days  
Heating Degree Days 2 4  
Month to date heating degree days 151 138  
Since 1 June heating degree days 151 138  
Since 1 July heating degree days 12460 13647  
Cooling Degree Days 0 1  
Month to date cooling degree days 0 10  
Year to date cooling degree days 0 11  
Since 1 June cooling degree days 0 10  
Growing Degree Days 12 (Base 50)    
Moisture  
Dew Point 42 °F    
Average Humidity 46    
Maximum Humidity 71    
Minimum Humidity 22    
Precipitation  
Precipitation T in 0.06 in 0.61 in (1946)
Month to date precipitation 2.20 0.97  
Year to date precipitation 3.29 3.13  
Snow  
Snow 0.00 in 0.00 in 0.00 in (2002)
Month to date snowfall 0.0 0.0  
Since 1 June snowfall 0.0 0.0  
Since 1 July snowfall 48.9 65.0  
Snow Depth 0.00 in    
Sea Level Pressure  
Sea Level Pressure 29.72 in    
Wind  
Wind Speed 4 mph (SW)    
Max Wind Speed 14 mph    
Max Gust Speed -    
Visibility 10 miles    
Events Thunderstorm    
T = Trace of Precipitation, MM = Missing Value Source: NWS Daily Summary

Daily Weather History Graph

Daily Weather History Graph

Search for Another Location

Airport:

Trip Planner

Search our weather history database for the weather conditions in past years. The results will help you decide how hot, cold, wet, or windy it might be!

Date:

Astronomy

Jun. 23, 2014 Rise Set
Actual Time 3:00 AM AKDT 12:46 AM AKDT
Civil Twilight Sun does not rise Sun does not rise
Nautical Twilight Sun does not rise Sun does not rise
Astronomical Twilight Sun does not rise Sun does not rise
Moon 2:25 AM AKDT (6/23) 7:59 PM AKDT (6/23)
Length of Visible Light 24h 00m
Length of Day
21h 46m
Waning Crescent, 12% of the Moon is Illuminated
Jun 23
Waning Crescent
Jun 27
New
Jul 5
First Quarter
Jul 12
Full
Jul 18
Last Quarter

Hourly Weather History & Observations

Time (AKDT) Temp. Dew Point Humidity Pressure Visibility Wind Dir Wind Speed Gust Speed Precip Events Conditions
12:53 AM 61.0 °F 39.9 °F 46% 29.66 in 10.0 mi Calm Calm - N/A   Scattered Clouds
1:53 AM 55.0 °F 43.0 °F 64% 29.67 in 10.0 mi NNE 4.6 mph - N/A   Mostly Cloudy
2:53 AM 57.0 °F 42.1 °F 57% 29.67 in 10.0 mi North 4.6 mph - N/A   Mostly Cloudy
3:53 AM 55.9 °F 43.0 °F 62% 29.69 in 10.0 mi Variable 3.5 mph - N/A   Mostly Cloudy
4:53 AM 54.0 °F 44.1 °F 69% 29.70 in 10.0 mi NNE 5.8 mph - N/A   Mostly Cloudy
5:53 AM 52.0 °F 43.0 °F 71% 29.70 in 10.0 mi North 4.6 mph - N/A   Mostly Cloudy
6:53 AM 57.0 °F 44.1 °F 62% 29.72 in 10.0 mi NE 4.6 mph - N/A   Mostly Cloudy
7:53 AM 57.0 °F 43.0 °F 59% 29.73 in 10.0 mi East 3.5 mph - N/A   Mostly Cloudy
8:53 AM 59.0 °F 43.0 °F 55% 29.73 in 10.0 mi Calm Calm - N/A   Mostly Cloudy
9:53 AM 63.0 °F 45.0 °F 52% 29.73 in 10.0 mi Variable 3.5 mph - N/A   Mostly Cloudy
10:53 AM 66.0 °F 45.0 °F 47% 29.73 in 10.0 mi SSE 5.8 mph - N/A   Mostly Cloudy
11:53 AM 68.0 °F 41.0 °F 37% 29.72 in 10.0 mi South 4.6 mph - N/A   Mostly Cloudy
12:53 PM 69.8 °F 37.4 °F 31% 29.71 in 10.0 mi SSW 9.2 mph - N/A   Mostly Cloudy
1:53 PM 71.6 °F 37.4 °F 29% 29.71 in 10.0 mi SSW 6.9 mph - N/A   Mostly Cloudy
2:53 PM 73.0 °F 39.9 °F 30% 29.72 in 10.0 mi WSW 9.2 mph - N/A   Mostly Cloudy
3:53 PM 72.0 °F 41.0 °F 33% 29.72 in 10.0 mi South 8.1 mph - N/A   Mostly Cloudy
4:25 PM 70.0 °F 41.0 °F 35% 29.71 in 10.0 mi South 5.8 mph - N/A Thunderstorm Thunderstorm
4:45 PM 70.0 °F 41.0 °F 35% 29.71 in 10.0 mi SW 9.2 mph - N/A   Mostly Cloudy
4:53 PM 66.9 °F 42.1 °F 40% 29.72 in 10.0 mi SW 6.9 mph - N/A   Mostly Cloudy
5:53 PM 72.0 °F 41.0 °F 33% 29.72 in 10.0 mi SSE 5.8 mph - 0.00 in   Mostly Cloudy
6:53 PM 71.1 °F 39.9 °F 32% 29.73 in 10.0 mi West 6.9 mph - N/A   Mostly Cloudy
7:53 PM 68.0 °F 43.0 °F 40% 29.74 in 10.0 mi West 13.8 mph - N/A   Mostly Cloudy
8:53 PM 63.0 °F 43.0 °F 48% 29.76 in 10.0 mi West 12.7 mph - N/A   Mostly Cloudy
9:53 PM 62.1 °F 41.0 °F 46% 29.77 in 10.0 mi NNW 4.6 mph - N/A   Mostly Cloudy
10:53 PM 62.1 °F 43.0 °F 50% 29.79 in 10.0 mi SSW 4.6 mph - N/A   Mostly Cloudy
11:53 PM 60.1 °F 46.0 °F 60% 29.80 in 10.0 mi Calm Calm - N/A   Mostly Cloudy